sat.trackr.live / text

‹ back to catalog

STARLINK-11513 [DTC]

NORAD 62589 · 2025-008C

PAYLOAD ACTIVE UNKNOWN

§ Identity

Operator
Country
US
Launch date
2025-01-13
Launch site
AFETR
Launch vehicle
Mass (kg)
RCS (m²)

Purposes: comms

External: N2YO · Heavens-Above · Gunter

§ Orbital elements

Epoch: 2026-05-25T01:17:06.095328Z

Period
91.67 min
Inclination
43.0016°
Eccentricity
0.0001765
Mean motion
15.70840112 rev/d
Perigee alt
355.3 km
Apogee alt
357.7 km
Semi-major
6,734.6 km
B*
1.0323e-3
RAAN
25.9285°
Arg perigee
266.3535°
Mean anomaly
93.7131°
Rev number
7,812

§ Raw data

STARLINK-11513 [DTC]1 62589U 25008C   26145.05354277  .00134171  00000+0  10323-2 0  99932 62589  43.0016  25.9285 0001765 266.3535  93.7131 15.70840112 78127

JSON: /api/v1/satellites/62589 · /tle

For live sub-satellite position, see the globe view (requires WebGL).

§ Visibility from observer

Set your observer location to see the next 7 days of passes ≥ 10°. The values pass through the URL so the page stays shareable.

No JS? Fill the form by hand. The geolocation button needs JavaScript.